GW3570 Weather Reports


Display with metric or nautical units.
time (UTC)temp
F
wind
direction
speed
MPH
gust
MPH
rain 1hr
in
rain 24hr
in
rain mn
in
humidity
%
barometer
mb
20260906203051 100 6 4.0 5.0 0.00 0.00 0.00 42 1013.4
20260906202548 101 98 6.0 8.0 0.00 0.00 0.00 41 1013.7
20260906202047 102 238 0.0 1.0 0.00 0.00 0.00 39 1013.5
20260906201542 101 61 0.0 0.0 0.00 0.00 0.00 41 1013.6
20260906201041 102 343 2.0 2.0 0.00 0.00 0.00 42 1013.8
20260906200537 101 233 3.0 5.0 0.00 0.00 0.00 42 1013.6
20260906200033 101 286 3.0 3.0 0.00 0.00 0.00 42 1013.7
20260906195528 102 17 3.0 8.0 0.00 0.00 0.00 41 1013.6
20260906195025 101 112 2.0 2.0 0.00 0.00 0.00 42 1013.4
20260906194520 101 32 3.0 5.0 0.00 0.00 0.00 43 1013.8
20260906194016 101 329 2.0 5.0 0.00 0.00 0.00 43 1013.8
20260906193515 102 107 2.0 3.0 0.00 0.00 0.00 42 1013.9
20260906193011 101 194 2.0 3.0 0.00 0.00 0.00 42 1013.7
20260906192506 102 119 3.0 3.0 0.00 0.00 0.00 44 1013.9
20260906192005 102 66 1.0 1.0 0.00 0.00 0.00 42 1014.0
20260906191500 103 288 3.0 5.0 0.00 0.00 0.00 41 1014.1
20260906190959 102 130 0.0 0.0 0.00 0.00 0.00 43 1014.1
20260906190458 102 313 3.0 5.0 0.00 0.00 0.00 42 1014.2
20260906185953 101 93 3.0 3.0 0.00 0.00 0.00 46 1014.1
20260906185453 101 283 4.0 6.0 0.00 0.00 0.00 42 1014.2
20260906184951 99 134 1.0 1.0 0.00 0.00 0.00 46 1014.5
20260906184442 100 69 3.0 5.0 0.00 0.00 0.00 45 1014.6
20260906183937 101 82 3.0 7.0 0.00 0.00 0.00 44 1014.7
20260906183433 102 56 3.0 5.0 0.00 0.00 0.00 42 1014.6
20260906182928 101 120 1.0 1.0 0.00 0.00 0.00 44 1014.7
20260906182424 101 181 2.0 2.0 0.00 0.00 0.00 43 1014.7
20260906181919 100 38 3.0 3.0 0.00 0.00 0.00 44 1014.8
20260906181409 99 123 1.0 2.0 0.00 0.00 0.00 46 1014.9
20260906180905 99 155 2.0 3.0 0.00 0.00 0.00 47 1015.5
20260906180400 100 298 3.0 3.0 0.00 0.00 0.00 46 1015.1
20260906175857 100 255 3.0 3.0 0.00 0.00 0.00 46 1015.1
20260906175352 99 47 2.0 2.0 0.00 0.00 0.00 48 1015.0
20260906174851 99 325 4.0 6.0 0.00 0.00 0.00 50 1015.7
20260906174350 99 14 2.0 3.0 0.00 0.00 0.00 48 1015.5
20260906173845 98 145 1.0 1.0 0.00 0.00 0.00 50 1015.6
20260906173342 98 108 0.0 1.0 0.00 0.00 0.00 50 1015.5
20260906172840 97 86 0.0 1.0 0.00 0.00 0.00 52 1015.7
20260906172337 96 28 1.0 1.0 0.00 0.00 0.00 51 1015.8
20260906171832 97 135 3.0 3.0 0.00 0.00 0.00 52 1015.8
20260906171326 97 194 1.0 1.0 0.00 0.00 0.00 54 1015.8
20260906170822 98 50 2.0 2.0 0.00 0.00 0.00 53 1015.9
20260906170318 97 213 0.0 1.0 0.00 0.00 0.00 53 1016.2
20260906165814 96 224 2.0 2.0 0.00 0.00 0.00 54 1016.1
20260906165313 95 35 2.0 3.0 0.00 0.00 0.00 56 1016.2
20260906164808 95 130 1.0 1.0 0.00 0.00 0.00 57 1016.1
20260906164308 95 291 2.0 2.0 0.00 0.00 0.00 57 1016.2
20260906163804 93 165 1.0 2.0 0.00 0.00 0.00 57 1016.2
20260906163300 95 135 0.0 1.0 0.00 0.00 0.00 57 1016.3
20260906162757 95 147 0.0 0.0 0.00 0.00 0.00 57 1016.3
20260906162256 95 78 2.0 2.0 0.00 0.00 0.00 56 1016.3
20260906161756 94 153 1.0 1.0 0.00 0.00 0.00 57 1016.4
20260906161255 95 45 0.0 0.0 0.00 0.00 0.00 56 1016.4
20260906160754 94 161 1.0 1.0 0.00 0.00 0.00 57 1016.3
20260906160249 94 141 1.0 2.0 0.00 0.00 0.00 60 1016.3
20260906155746 94 232 1.0 2.0 0.00 0.00 0.00 58 1016.4
20260906155241 93 157 0.0 1.0 0.00 0.00 0.00 61 1016.2
20260906154737 93 140 0.0 0.0 0.00 0.00 0.00 59 1016.2
20260906154232 92 239 2.0 2.0 0.00 0.00 0.00 62 1016.2
20260906153730 92 138 2.0 2.0 0.00 0.00 0.00 62 1016.2
20260906153226 91 201 2.0 2.0 0.00 0.00 0.00 64 1016.3
20260906152721 92 146 2.0 2.0 0.00 0.00 0.00 63 1016.4
20260906152221 91 185 1.0 1.0 0.00 0.00 0.00 64 1016.3
20260906151715 89 151 0.0 0.0 0.00 0.00 0.00 65 1016.2
20260906151211 90 68 1.0 1.0 0.00 0.00 0.00 67 1016.4
20260906150707 89 356 1.0 1.0 0.00 0.00 0.00 67 1016.4
20260906150201 89 103 1.0 2.0 0.00 0.00 0.00 67 1016.1
20260906145700 89 120 1.0 2.0 0.00 0.00 0.00 66 1016.0
20260906145200 90 22 1.0 1.0 0.00 0.00 0.00 65 1016.2
20260906144700 89 64 1.0 1.0 0.00 0.00 0.00 66 1016.1
20260906144155 88 116 2.0 2.0 0.00 0.00 0.00 70 1016.2
20260906143649 88 163 0.0 0.0 0.00 0.00 0.00 68 1016.3
20260906143147 87 134 1.0 2.0 0.00 0.00 0.00 71 1016.1
20260906142646 87 159 1.0 2.0 0.00 0.00 0.00 70 1016.2
20260906142141 87 62 2.0 2.0 0.00 0.00 0.00 70 1016.2
20260906141640 87 45 0.0 1.0 0.00 0.00 0.00 70 1016.3
20260906141135 88 212 2.0 2.0 0.00 0.00 0.00 69 1016.2
20260906140634 86 80 1.0 1.0 0.00 0.00 0.00 70 1016.2
20260906140129 86 315 0.0 1.0 0.00 0.00 0.00 72 1016.2
20260906135626 84 154 0.0 0.0 0.00 0.00 0.00 74 1016.1
20260906135122 84 9 2.0 3.0 0.00 0.00 0.00 75 1016.2
20260906134618 83 102 1.0 1.0 0.00 0.00 0.00 75 1016.0
20260906134113 83 67 2.0 2.0 0.00 0.00 0.00 76 1016.0
20260906133609 82 343 2.0 3.0 0.00 0.00 0.00 77 1016.0
20260906133109 82 78 0.0 0.0 0.00 0.00 0.00 78 1015.8
20260906132604 81 75 2.0 2.0 0.00 0.00 0.00 79 1016.1
20260906132059 80 29 1.0 1.0 0.00 0.00 0.00 80 1016.0
20260906131554 80 71 1.0 1.0 0.00 0.00 0.00 81 1016.2
20260906131050 79 72 0.0 0.0 0.00 0.00 0.00 82 1016.2
20260906130544 79 303 0.0 0.0 0.00 0.00 0.00 82 1016.2
20260906130039 78 221 0.0 0.0 0.00 0.00 0.00 83 1015.9
20260906125536 78 213 0.0 0.0 0.00 0.00 0.00 83 1016.0
20260906125031 78 165 0.0 0.0 0.00 0.00 0.00 84 1015.8
20260906124526 77 189 0.0 0.0 0.00 0.00 0.00 84 1015.7
20260906124021 77 175 0.0 0.0 0.00 0.00 0.00 85 1015.2
20260906123520 77 198 0.0 0.0 0.00 0.00 0.00 85 1015.3
20260906123015 76 224 0.0 0.0 0.00 0.00 0.00 86 1015.6
20260906122509 76 248 0.0 0.0 0.00 0.00 0.00 86 1015.1
20260906122006 76 323 0.0 0.0 0.00 0.00 0.00 86 1015.1
20260906121501 76 356 0.0 0.0 0.00 0.00 0.00 86 1015.1
20260906120958 76 314 0.0 0.0 0.00 0.00 0.00 86 1015.3
20260906120453 76 260 0.0 0.0 0.00 0.00 0.00 86 1015.5
20260906115949 76 226 0.0 0.0 0.00 0.00 0.00 85 1015.0
20260906115444 77 229 0.0 0.0 0.00 0.00 0.00 84 1015.0
20260906114944 77 76 0.0 0.0 0.00 0.00 0.00 84 1014.9
20260906114439 77 222 0.0 0.0 0.00 0.00 0.00 84 1015.0
20260906113935 76 292 0.0 0.0 0.00 0.00 0.00 84 1014.8
20260906113433 76 285 0.0 0.0 0.00 0.00 0.00 85 1014.9
20260906112929 75 267 0.0 0.0 0.00 0.00 0.00 86 1015.1
20260906112424 75 268 0.0 0.0 0.00 0.00 0.00 87 1015.1
20260906111920 75 290 0.0 0.0 0.00 0.00 0.00 88 1014.8
20260906111419 75 242 0.0 0.0 0.00 0.00 0.00 88 1014.9
20260906110914 75 208 0.0 0.0 0.00 0.00 0.00 88 1014.9
20260906110410 75 252 0.0 0.0 0.00 0.00 0.00 87 1014.9
20260906105909 75 289 0.0 0.0 0.00 0.00 0.00 87 1014.9
20260906105405 75 296 0.0 0.0 0.00 0.00 0.00 87 1014.9
20260906104901 75 296 0.0 0.0 0.00 0.00 0.00 86 1014.9
20260906104359 75 212 0.0 0.0 0.00 0.00 0.00 87 1014.9
20260906103858 75 247 0.0 0.0 0.00 0.00 0.00 87 1014.7
20260906103356 75 182 0.0 0.0 0.00 0.00 0.00 87 1014.8
20260906102852 75 188 0.0 0.0 0.00 0.00 0.00 88 1014.7
20260906102351 75 263 0.0 0.0 0.00 0.00 0.00 89 1014.8
20260906101846 75 216 0.0 0.0 0.00 0.00 0.00 88 1014.8
20260906101341 75 245 0.0 0.0 0.00 0.00 0.00 88 1014.7
20260906100837 75 260 0.0 0.0 0.00 0.00 0.00 89 1014.9
20260906100336 75 281 0.0 0.0 0.00 0.00 0.00 89 1014.8
20260906095831 75 288 0.0 0.0 0.00 0.00 0.00 89 1014.6
20260906095326 75 238 0.0 0.0 0.00 0.00 0.00 91 1014.6
20260906094825 75 248 0.0 0.0 0.00 0.00 0.00 91 1014.6
20260906094320 75 240 0.0 0.0 0.00 0.00 0.00 91 1014.5
20260906093817 76 245 0.0 0.0 0.00 0.00 0.00 91 1014.4
20260906093307 75 289 0.0 0.0 0.00 0.00 0.00 91 1014.3
20260906092802 76 307 0.0 0.0 0.00 0.00 0.00 90 1014.4
20260906092305 75 317 0.0 0.0 0.00 0.00 0.00 90 1014.2
20260906091758 76 293 0.0 0.0 0.00 0.00 0.00 89 1014.4
20260906091254 76 291 0.0 0.0 0.00 0.00 0.00 89 1013.9
20260906090750 76 338 0.0 0.0 0.00 0.00 0.00 89 1014.5
20260906090249 76 320 0.0 0.0 0.00 0.00 0.00 89 1014.2
20260906085749 77 30 0.0 0.0 0.00 0.00 0.00 90 1014.2
20260906085248 76 324 0.0 0.0 0.00 0.00 0.00 89 1014.3
20260906084742 76 340 0.0 0.0 0.00 0.00 0.00 89 1014.5
20260906084236 76 298 0.0 0.0 0.00 0.00 0.00 89 1013.9
20260906083731 77 173 0.0 0.0 0.00 0.00 0.00 89 1014.0
20260906083226 77 232 0.0 0.0 0.00 0.00 0.00 87 1014.0
20260906082721 76 307 0.0 0.0 0.00 0.00 0.00 87 1013.9
20260906082211 77 131 0.0 0.0 0.00 0.00 0.00 88 1013.8
20260906081707 76 277 0.0 0.0 0.00 0.00 0.00 88 1013.9
20260906081156 76 259 0.0 0.0 0.00 0.00 0.00 87 1013.8
20260906080653 76 274 0.0 0.0 0.00 0.00 0.00 87 1013.8
20260906080148 76 265 0.0 0.0 0.00 0.00 0.00 88 1013.9
20260906075642 76 238 0.0 0.0 0.00 0.00 0.00 88 1013.8
20260906075137 76 129 0.0 0.0 0.00 0.00 0.00 89 1013.8
20260906074632 76 182 0.0 0.0 0.00 0.00 0.00 89 1013.7
20260906074131 76 145 0.0 0.0 0.00 0.00 0.00 89 1013.8
20260906073626 76 232 0.0 0.0 0.00 0.00 0.00 90 1013.8
20260906073122 76 250 0.0 0.0 0.00 0.00 0.00 90 1014.0
20260906072617 76 214 0.0 0.0 0.00 0.00 0.00 90 1013.8
20260906072112 76 233 0.0 0.0 0.00 0.00 0.00 89 1014.0
20260906071608 76 262 0.0 0.0 0.00 0.00 0.00 89 1014.0
20260906071103 76 230 0.0 0.0 0.00 0.00 0.00 89 1014.2
20260906070600 76 243 0.0 0.0 0.00 0.00 0.00 89 1013.8
20260906070055 77 247 0.0 0.0 0.00 0.00 0.00 89 1014.0
20260906065554 77 217 0.0 0.0 0.00 0.00 0.00 90 1014.2
20260906065050 77 235 0.0 0.0 0.00 0.00 0.00 90 1014.3
20260906064546 77 232 0.0 0.0 0.00 0.00 0.00 91 1014.3
20260906064040 77 268 0.0 0.0 0.00 0.00 0.00 91 1014.3
20260906063536 77 200 0.0 0.0 0.00 0.00 0.00 91 1014.4
20260906063032 78 204 0.0 0.0 0.00 0.00 0.00 91 1014.4
20260906062527 78 199 0.0 0.0 0.00 0.00 0.00 91 1014.3
20260906062021 78 185 0.0 0.0 0.00 0.00 0.00 91 1014.3
20260906061518 78 200 0.0 0.0 0.00 0.00 0.00 91 1014.6
20260906061017 78 200 0.0 0.0 0.00 0.00 0.00 91 1014.4
20260906060513 78 232 0.0 0.0 0.00 0.00 0.00 91 1014.3
20260906060010 78 245 0.0 0.0 0.00 0.00 0.00 90 1014.5
20260906055505 78 194 0.0 0.0 0.00 0.00 0.00 90 1014.4
20260906055000 78 191 0.0 0.0 0.00 0.00 0.00 90 1014.4
20260906054455 78 199 0.0 0.0 0.00 0.00 0.00 90 1014.6
20260906053951 78 282 0.0 0.0 0.00 0.00 0.00 89 1014.7
20260906053447 78 154 0.0 0.0 0.00 0.00 0.00 89 1014.5
20260906052942 79 219 0.0 0.0 0.00 0.00 0.00 88 1014.4
20260906052438 79 269 0.0 0.0 0.00 0.00 0.00 87 1014.5
20260906051935 79 221 0.0 0.0 0.00 0.00 0.00 87 1014.5
20260906051430 79 217 0.0 0.0 0.00 0.00 0.00 86 1014.4
20260906050926 80 210 0.0 0.0 0.00 0.00 0.00 85 1014.2
20260906050425 80 304 0.0 0.0 0.00 0.00 0.00 85 1014.5
20260906045925 80 332 0.0 0.0 0.00 0.00 0.00 85 1014.6
20260906045423 80 274 0.0 0.0 0.00 0.00 0.00 84 1014.6
20260906044919 80 322 0.0 0.0 0.00 0.00 0.00 83 1014.4
20260906044414 80 315 0.0 0.0 0.00 0.00 0.00 83 1014.6
20260906043910 80 103 0.0 0.0 0.00 0.00 0.00 83 1014.5
20260906043405 80 317 0.0 0.0 0.00 0.00 0.00 82 1014.4
20260906042900 80 260 0.0 0.0 0.00 0.00 0.00 82 1014.6
20260906042359 81 255 0.0 0.0 0.00 0.00 0.00 84 1014.5
20260906041854 81 219 0.0 0.0 0.00 0.00 0.00 84 1014.5
20260906041350 81 168 0.0 0.0 0.00 0.00 0.00 84 1014.4
20260906040845 82 356 0.0 0.0 0.00 0.00 0.00 83 1014.4
20260906040341 81 359 0.0 0.0 0.00 0.00 0.00 83 1014.6
20260906035836 82 266 0.0 0.0 0.00 0.00 0.00 82 1014.4
20260906035331 82 176 0.0 0.0 0.00 0.00 0.00 82 1014.3
20260906034827 82 235 0.0 0.0 0.00 0.00 0.00 81 1014.1
20260906034321 82 153 0.0 0.0 0.00 0.00 0.00 81 1014.3
20260906033817 82 168 0.0 0.0 0.00 0.00 0.00 81 1014.0
20260906033316 82 207 0.0 0.0 0.00 0.00 0.00 80 1013.9
20260906032813 82 159 0.0 0.0 0.00 0.00 0.00 81 1013.9
20260906032308 82 139 0.0 0.0 0.00 0.00 0.00 80 1013.8
20260906031803 82 328 0.0 0.0 0.00 0.00 0.00 77 1013.7
20260906031259 82 266 0.0 0.0 0.00 0.00 0.00 76 1013.9
20260906030758 82 123 0.0 0.0 0.00 0.00 0.00 78 1013.8
20260906030254 83 233 0.0 0.0 0.00 0.00 0.00 79 1013.6
20260906025753 83 140 0.0 0.0 0.00 0.00 0.00 78 1013.7
20260906025248 83 151 0.0 0.0 0.00 0.00 0.00 77 1013.7
20260906024747 83 140 0.0 0.0 0.00 0.00 0.00 75 1013.8
20260906024245 83 63 0.0 0.0 0.00 0.00 0.00 73 1013.8
20260906023741 83 253 0.0 0.0 0.00 0.00 0.00 71 1013.6
20260906023237 83 283 0.0 0.0 0.00 0.00 0.00 70 1013.5
20260906022732 83 263 0.0 0.0 0.00 0.00 0.00 69 1013.7
20260906022227 83 264 0.0 0.0 0.00 0.00 0.00 69 1013.5
20260906021723 84 258 0.0 0.0 0.00 0.00 0.00 69 1013.4
20260906021222 84 236 0.0 0.0 0.00 0.00 0.00 68 1013.2
20260906020717 84 243 0.0 0.0 0.00 0.00 0.00 68 1013.2
20260906020211 85 246 0.0 0.0 0.00 0.00 0.00 67 1013.1
20260906015706 85 246 0.0 0.0 0.00 0.00 0.00 65 1013.0
20260906015205 85 1 0.0 0.0 0.00 0.00 0.00 64 1013.0
20260906014705 85 33 0.0 0.0 0.00 0.00 0.00 64 1012.9
20260906014201 85 347 0.0 0.0 0.00 0.00 0.00 66 1012.7
20260906013657 86 325 0.0 0.0 0.00 0.00 0.00 65 1012.8
20260906013152 87 355 0.0 0.0 0.00 0.00 0.00 63 1013.1
20260906012651 87 307 0.0 0.0 0.00 0.00 0.00 61 1012.9
20260906012146 87 53 0.0 0.0 0.00 0.00 0.00 60 1012.7
20260906011642 87 35 0.0 0.0 0.00 0.00 0.00 62 1012.6
20260906011142 87 355 0.0 0.0 0.00 0.00 0.00 63 1012.7
20260906010637 87 11 0.0 0.0 0.00 0.00 0.00 63 1012.6
20260906010133 87 310 0.0 1.0 0.00 0.00 0.00 62 1012.7
20260906005632 87 25 1.0 1.0 0.00 0.00 0.00 61 1012.6
20260906005127 88 5 1.0 1.0 0.00 0.00 0.00 61 1012.5
20260906004626 88 346 1.0 1.0 0.00 0.00 0.00 61 1012.5
20260906004121 89 319 1.0 1.0 0.00 0.00 0.00 61 1012.3
20260906003616 90 237 0.0 0.0 0.00 0.00 0.00 59 1012.5
20260906003112 90 2 0.0 1.0 0.00 0.00 0.00 57 1012.5
20260906002607 91 235 0.0 0.0 0.00 0.00 0.00 57 1012.8
20260906002101 92 250 0.0 0.0 0.00 0.00 0.00 56 1012.5
20260906001556 93 164 0.0 0.0 0.00 0.00 0.00 54 1012.4
20260906001051 93 214 0.0 0.0 0.00 0.00 0.00 53 1012.3
20260906000547 94 185 0.0 0.0 0.00 0.00 0.00 53 1012.3
20260906000042 95 221 0.0 0.0 0.00 0.00 0.00 52 1012.2
20260905235536 96 190 0.0 0.0 0.00 0.00 0.00 49 1012.5
20260905235031 97 182 0.0 0.0 0.00 0.00 0.00 46 1012.3
20260905234526 97 209 0.0 0.0 0.00 0.00 0.00 44 1012.2
20260905234021 97 169 0.0 0.0 0.00 0.00 0.00 43 1012.3
20260905233516 98 170 0.0 0.0 0.00 0.00 0.00 44 1012.4
20260905233015 98 13 1.0 1.0 0.00 0.00 0.00 41 1012.4
20260905232511 99 233 0.0 0.0 0.00 0.00 0.00 42 1012.4
20260905232007 99 256 0.0 0.0 0.00 0.00 0.00 42 1012.3
20260905231502 99 292 2.0 2.0 0.00 0.00 0.00 41 1012.6
20260905230958 99 218 2.0 2.0 0.00 0.00 0.00 40 1012.6
20260905230456 100 255 1.0 1.0 0.00 0.00 0.00 39 1012.3
20260905225954 100 177 1.0 1.0 0.00 0.00 0.00 39 1012.0
20260905225450 100 194 0.0 1.0 0.00 0.00 0.00 39 1012.1
20260905224945 100 208 2.0 2.0 0.00 0.00 0.00 38 1012.4
20260905224440 101 336 1.0 2.0 0.00 0.00 0.00 38 1012.2
20260905223939 100 274 1.0 1.0 0.00 0.00 0.00 38 1012.4
20260905223437 101 264 2.0 2.0 0.00 0.00 0.00 38 1012.2
20260905222932 101 39 1.0 2.0 0.00 0.00 0.00 38 1012.5
20260905222432 101 336 3.0 3.0 0.00 0.00 0.00 37 1012.4
20260905221928 103 308 5.0 7.0 0.00 0.00 0.00 37 1012.3
20260905221424 103 44 2.0 2.0 0.00 0.00 0.00 36 1012.5
20260905220920 102 217 0.0 1.0 0.00 0.00 0.00 35 1012.2
20260905220416 103 264 3.0 5.0 0.00 0.00 0.00 35 1012.5
20260905215915 103 184 0.0 1.0 0.00 0.00 0.00 35 1012.5
20260905215411 103 170 0.0 1.0 0.00 0.00 0.00 35 1012.5
20260905214907 103 324 2.0 2.0 0.00 0.00 0.00 35 1012.5
20260905214403 104 132 3.0 3.0 0.00 0.00 0.00 35 1012.4
20260905213857 103 263 1.0 1.0 0.00 0.00 0.00 36 1012.7
20260905213354 103 324 1.0 2.0 0.00 0.00 0.00 36 1012.6
20260905212854 103 263 2.0 5.0 0.00 0.00 0.00 37 1012.4
20260905212354 101 210 0.0 0.0 0.00 0.00 0.00 38 1012.8
20260905211848 100 287 2.0 3.0 0.00 0.00 0.00 39 1012.6
20260905211343 102 233 3.0 3.0 0.00 0.00 0.00 37 1012.9
20260905210839 104 268 4.0 5.0 0.00 0.00 0.00 35 1012.8
20260905210334 103 200 1.0 2.0 0.00 0.00 0.00 36 1012.6
20260905205832 104 282 2.0 2.0 0.00 0.00 0.00 36 1012.9
20260905205327 103 62 0.0 1.0 0.00 0.00 0.00 35 1012.9
20260905204827 103 55 3.0 3.0 0.00 0.00 0.00 34 1012.9
20260905204323 102 162 0.0 1.0 0.00 0.00 0.00 35 1012.8
20260905203821 102 223 3.0 3.0 0.00 0.00 0.00 36 1012.9